Time,TemperatureF,DewpointF,PressureIn,WindDirection,WindDirectionDegrees,WindSpeedMPH,WindSpeedGustMPH,Humidity,HourlyPrecipIn,Conditions,Clouds,dailyrainin,SoftwareType,DateUTC
2013-02-13 00:02:00,30.0,27.0,-100.00,West,265,10.0,12.0,89,-99.99,,,-99.99,,2013-02-13 06:02:00,
2013-02-13 00:32:00,29.0,27.0,-100.00,WSW,255,7.0,7.0,90,-99.99,,,-99.99,,2013-02-13 06:32:00,
2013-02-13 00:42:00,29.0,27.0,-100.00,WSW,255,7.0,7.0,90,-99.99,,,-99.99,,2013-02-13 06:42:00,
2013-02-13 00:52:00,29.0,27.0,-100.00,WSW,255,7.0,7.0,90,-99.99,,,-99.99,,2013-02-13 06:52:00,
2013-02-13 01:02:00,29.0,27.0,-100.00,WSW,255,7.0,7.0,90,-99.99,,,-99.99,,2013-02-13 07:02:00,
2013-02-13 01:32:00,28.0,27.0,-100.00,West,260,9.0,11.0,94,-99.99,,,-99.99,,2013-02-13 07:32:00,
2013-02-13 01:42:00,28.0,27.0,-100.00,West,260,9.0,11.0,94,-99.99,,,-99.99,,2013-02-13 07:42:00,
2013-02-13 01:52:00,28.0,27.0,-100.00,West,260,9.0,11.0,94,-99.99,,,-99.99,,2013-02-13 07:52:00,
2013-02-13 02:01:00,28.0,27.0,-100.00,West,260,9.0,11.0,94,-99.99,,,-99.99,,2013-02-13 08:01:00,
2013-02-13 02:32:00,28.0,26.0,-100.00,West,280,9.0,10.0,93,-99.99,,,-99.99,,2013-02-13 08:32:00,
2013-02-13 02:43:00,28.0,26.0,-100.00,West,280,9.0,10.0,93,-99.99,,,-99.99,,2013-02-13 08:43:00,
2013-02-13 02:52:00,28.0,26.0,-100.00,West,280,9.0,10.0,93,-99.99,,,-99.99,,2013-02-13 08:52:00,
2013-02-13 03:01:00,28.0,26.0,-100.00,West,280,9.0,10.0,93,-99.99,,,-99.99,,2013-02-13 09:01:00,
2013-02-13 03:32:00,24.0,23.0,-100.00,WNW,295,6.0,6.0,96,-99.99,,,-99.99,,2013-02-13 09:32:00,
2013-02-13 03:42:00,24.0,23.0,-100.00,WNW,295,6.0,6.0,96,-99.99,,,-99.99,,2013-02-13 09:42:00,
2013-02-13 03:52:00,24.0,23.0,-100.00,WNW,295,6.0,6.0,96,-99.99,,,-99.99,,2013-02-13 09:52:00,
2013-02-13 04:01:00,24.0,23.0,-100.00,WNW,295,6.0,6.0,96,-99.99,,,-99.99,,2013-02-13 10:01:00,
2013-02-13 04:32:00,23.0,23.0,-100.00,West,260,8.0,9.0,99,-99.99,,,-99.99,,2013-02-13 10:32:00,
2013-02-13 04:42:00,23.0,23.0,-100.00,West,260,8.0,9.0,99,-99.99,,,-99.99,,2013-02-13 10:42:00,
2013-02-13 04:52:00,23.0,23.0,-100.00,West,260,8.0,9.0,99,-99.99,,,-99.99,,2013-02-13 10:52:00,
2013-02-13 05:01:00,23.0,23.0,-100.00,West,260,8.0,9.0,99,-99.99,,,-99.99,,2013-02-13 11:01:00,
2013-02-13 05:10:00,18.0,18.0,-100.00,West,260,6.0,6.0,99,-99.99,,,-99.99,,2013-02-13 11:10:00,
2013-02-13 05:32:00,18.0,18.0,-100.00,West,260,6.0,6.0,99,-99.99,,,-99.99,,2013-02-13 11:32:00,
2013-02-13 05:42:00,18.0,18.0,-100.00,West,260,6.0,6.0,99,-99.99,,,-99.99,,2013-02-13 11:42:00,
2013-02-13 05:52:00,18.0,18.0,-100.00,West,260,6.0,6.0,99,-99.99,,,-99.99,,2013-02-13 11:52:00,
2013-02-13 06:02:00,18.0,18.0,-100.00,West,260,6.0,6.0,99,-99.99,,,-99.99,,2013-02-13 12:02:00,
2013-02-13 06:32:00,21.0,20.0,-100.00,West,275,4.0,5.0,99,-99.99,,,-99.99,,2013-02-13 12:32:00,
2013-02-13 06:42:00,21.0,20.0,-100.00,West,275,4.0,5.0,99,-99.99,,,-99.99,,2013-02-13 12:42:00,
2013-02-13 06:52:00,21.0,20.0,-100.00,West,275,4.0,5.0,99,-99.99,,,-99.99,,2013-02-13 12:52:00,
2013-02-13 07:02:00,21.0,20.0,-100.00,West,275,4.0,5.0,99,-99.99,,,-99.99,,2013-02-13 13:02:00,
2013-02-13 07:10:00,21.0,21.0,-100.00,WNW,295,2.0,3.0,99,-99.99,,,-99.99,,2013-02-13 13:10:00,
2013-02-13 07:32:00,21.0,21.0,-100.00,WNW,295,2.0,3.0,99,-99.99,,,-99.99,,2013-02-13 13:32:00,
2013-02-13 07:42:00,21.0,21.0,-100.00,WNW,295,2.0,3.0,99,-99.99,,,-99.99,,2013-02-13 13:42:00,
2013-02-13 07:52:00,21.0,21.0,-100.00,WNW,295,2.0,3.0,99,-99.99,,,-99.99,,2013-02-13 13:52:00,
2013-02-13 08:01:00,21.0,21.0,-100.00,WNW,295,2.0,3.0,99,-99.99,,,-99.99,,2013-02-13 14:01:00,
2013-02-13 08:32:00,21.0,20.0,-100.00,West,260,2.0,2.0,99,-99.99,,,-99.99,,2013-02-13 14:32:00,
2013-02-13 08:42:00,21.0,20.0,-100.00,West,260,2.0,2.0,99,-99.99,,,-99.99,,2013-02-13 14:42:00,
2013-02-13 08:52:00,21.0,20.0,-100.00,West,260,2.0,2.0,99,-99.99,,,-99.99,,2013-02-13 14:52:00,
2013-02-13 09:01:00,21.0,20.0,-100.00,West,260,2.0,2.0,99,-99.99,,,-99.99,,2013-02-13 15:01:00,
2013-02-13 09:32:00,22.0,22.0,-100.00,NW,305,3.0,3.0,99,-99.99,,,-99.99,,2013-02-13 15:32:00,
2013-02-13 09:42:00,22.0,22.0,-100.00,NW,305,3.0,3.0,99,-99.99,,,-99.99,,2013-02-13 15:42:00,
2013-02-13 09:52:00,22.0,22.0,-100.00,NW,305,3.0,3.0,99,-99.99,,,-99.99,,2013-02-13 15:52:00,
2013-02-13 10:01:00,22.0,22.0,-100.00,NW,305,3.0,3.0,99,-99.99,,,-99.99,,2013-02-13 16:01:00,
2013-02-13 10:10:00,26.0,25.0,-100.00,WNW,290,3.0,4.0,96,-99.99,,,-99.99,,2013-02-13 16:10:00,
2013-02-13 10:32:00,26.0,25.0,-100.00,WNW,290,3.0,4.0,96,-99.99,,,-99.99,,2013-02-13 16:32:00,
2013-02-13 10:42:00,26.0,25.0,-100.00,WNW,290,3.0,4.0,96,-99.99,,,-99.99,,2013-02-13 16:42:00,
2013-02-13 10:52:00,26.0,25.0,-100.00,WNW,290,3.0,4.0,96,-99.99,,,-99.99,,2013-02-13 16:52:00,
2013-02-13 11:01:00,26.0,25.0,-100.00,WNW,290,3.0,4.0,96,-99.99,,,-99.99,,2013-02-13 17:01:00,
2013-02-13 11:10:00,29.0,26.0,-100.00,North,10,4.0,5.0,89,-99.99,,,-99.99,,2013-02-13 17:10:00,
2013-02-13 11:32:00,29.0,26.0,-100.00,North,10,4.0,5.0,89,-99.99,,,-99.99,,2013-02-13 17:32:00,
2013-02-13 11:42:00,29.0,26.0,-100.00,North,10,4.0,5.0,89,-99.99,,,-99.99,,2013-02-13 17:42:00,
2013-02-13 11:52:00,29.0,26.0,-100.00,North,10,4.0,5.0,89,-99.99,,,-99.99,,2013-02-13 17:52:00,
2013-02-13 12:01:00,29.0,26.0,-100.00,North,10,4.0,5.0,89,-99.99,,,-99.99,,2013-02-13 18:01:00,
2013-02-13 12:32:00,31.0,26.0,-100.00,NE,35,2.0,4.0,82,-99.99,,,-99.99,,2013-02-13 18:32:00,
2013-02-13 12:42:00,31.0,26.0,-100.00,NE,35,2.0,4.0,82,-99.99,,,-99.99,,2013-02-13 18:42:00,
2013-02-13 12:52:00,31.0,26.0,-100.00,NE,35,2.0,4.0,82,-99.99,,,-99.99,,2013-02-13 18:52:00,
2013-02-13 13:01:00,31.0,26.0,-100.00,NE,35,2.0,4.0,82,-99.99,,,-99.99,,2013-02-13 19:01:00,
2013-02-13 13:11:00,31.0,25.0,-100.00,West,280,1.0,2.0,77,-99.99,,,-99.99,,2013-02-13 19:11:00,
2013-02-13 13:32:00,31.0,25.0,-100.00,West,280,1.0,2.0,77,-99.99,,,-99.99,,2013-02-13 19:32:00,
2013-02-13 13:42:00,31.0,25.0,-100.00,West,280,1.0,2.0,77,-99.99,,,-99.99,,2013-02-13 19:42:00,
2013-02-13 13:52:00,31.0,25.0,-100.00,West,280,1.0,2.0,77,-99.99,,,-99.99,,2013-02-13 19:52:00,
2013-02-13 14:02:00,31.0,25.0,-100.00,West,280,1.0,2.0,77,-99.99,,,-99.99,,2013-02-13 20:02:00,
2013-02-13 14:32:00,28.0,25.0,-100.00,WSW,245,8.0,9.0,88,-99.99,,,-99.99,,2013-02-13 20:32:00,
2013-02-13 14:42:00,28.0,25.0,-100.00,WSW,245,8.0,9.0,88,-99.99,,,-99.99,,2013-02-13 20:42:00,
2013-02-13 14:52:00,28.0,25.0,-100.00,WSW,245,8.0,9.0,88,-99.99,,,-99.99,,2013-02-13 20:52:00,
2013-02-13 15:01:00,28.0,25.0,-100.00,WSW,245,8.0,9.0,88,-99.99,,,-99.99,,2013-02-13 21:01:00,
2013-02-13 15:32:00,28.0,26.0,-100.00,NNE,25,6.0,8.0,91,-99.99,,,-99.99,,2013-02-13 21:32:00,
2013-02-13 15:42:00,28.0,26.0,-100.00,NNE,25,6.0,8.0,91,-99.99,,,-99.99,,2013-02-13 21:42:00,
2013-02-13 15:52:00,28.0,26.0,-100.00,NNE,25,6.0,8.0,91,-99.99,,,-99.99,,2013-02-13 21:52:00,
2013-02-13 16:02:00,28.0,26.0,-100.00,NNE,25,6.0,8.0,91,-99.99,,,-99.99,,2013-02-13 22:02:00,
2013-02-13 16:11:00,28.0,26.0,-100.00,NNE,25,6.0,8.0,91,-99.99,,,-99.99,,2013-02-13 22:11:00,
2013-02-13 16:32:00,27.0,26.0,-100.00,WSW,245,6.0,6.0,95,-99.99,,,-99.99,,2013-02-13 22:32:00,
2013-02-13 16:42:00,27.0,26.0,-100.00,WSW,245,6.0,6.0,95,-99.99,,,-99.99,,2013-02-13 22:42:00,
2013-02-13 16:52:00,27.0,26.0,-100.00,WSW,245,6.0,6.0,95,-99.99,,,-99.99,,2013-02-13 22:52:00,
2013-02-13 17:01:00,27.0,26.0,-100.00,WSW,245,6.0,6.0,95,-99.99,,,-99.99,,2013-02-13 23:01:00,
2013-02-13 17:32:00,26.0,26.0,-100.00,WSW,245,6.0,7.0,99,-99.99,,,-99.99,,2013-02-13 23:32:00,
2013-02-13 17:42:00,26.0,26.0,-100.00,WSW,245,6.0,7.0,99,-99.99,,,-99.99,,2013-02-13 23:42:00,
2013-02-13 17:52:00,26.0,26.0,-100.00,WSW,245,6.0,7.0,99,-99.99,,,-99.99,,2013-02-13 23:52:00,
2013-02-13 18:02:00,26.0,26.0,-100.00,WSW,245,6.0,7.0,99,-99.99,,,-99.99,,2013-02-14 00:02:00,
2013-02-13 18:32:00,25.0,24.0,-100.00,WSW,245,6.0,7.0,99,-99.99,,,-99.99,,2013-02-14 00:32:00,
2013-02-13 18:42:00,25.0,24.0,-100.00,WSW,245,6.0,7.0,99,-99.99,,,-99.99,,2013-02-14 00:42:00,
2013-02-13 18:52:00,25.0,24.0,-100.00,WSW,245,6.0,7.0,99,-99.99,,,-99.99,,2013-02-14 00:52:00,
2013-02-13 19:01:00,25.0,24.0,-100.00,WSW,245,6.0,7.0,99,-99.99,,,-99.99,,2013-02-14 01:01:00,
2013-02-13 19:32:00,22.0,22.0,-100.00,NNW,330,7.0,8.0,99,-99.99,,,-99.99,,2013-02-14 01:32:00,
2013-02-13 19:42:00,22.0,22.0,-100.00,NNW,330,7.0,8.0,99,-99.99,,,-99.99,,2013-02-14 01:42:00,
2013-02-13 19:52:00,22.0,22.0,-100.00,NNW,330,7.0,8.0,99,-99.99,,,-99.99,,2013-02-14 01:52:00,
2013-02-13 20:01:00,22.0,22.0,-100.00,NNW,330,7.0,8.0,99,-99.99,,,-99.99,,2013-02-14 02:01:00,
2013-02-13 20:32:00,20.0,20.0,-100.00,NW,320,8.0,9.0,99,-99.99,,,-99.99,,2013-02-14 02:32:00,
2013-02-13 20:42:00,20.0,20.0,-100.00,NW,320,8.0,9.0,99,-99.99,,,-99.99,,2013-02-14 02:42:00,
2013-02-13 20:52:00,20.0,20.0,-100.00,NW,320,8.0,9.0,99,-99.99,,,-99.99,,2013-02-14 02:52:00,
2013-02-13 21:02:00,20.0,20.0,-100.00,NW,320,8.0,9.0,99,-99.99,,,-99.99,,2013-02-14 03:02:00,
2013-02-13 21:32:00,19.0,19.0,-100.00,NW,315,9.0,9.0,99,-99.99,,,-99.99,,2013-02-14 03:32:00,
2013-02-13 21:42:00,19.0,19.0,-100.00,NW,315,9.0,9.0,99,-99.99,,,-99.99,,2013-02-14 03:42:00,
2013-02-13 21:52:00,19.0,19.0,-100.00,NW,315,9.0,9.0,99,-99.99,,,-99.99,,2013-02-14 03:52:00,
2013-02-13 22:01:00,19.0,19.0,-100.00,NW,315,9.0,9.0,99,-99.99,,,-99.99,,2013-02-14 04:01:00,
2013-02-13 22:32:00,19.0,19.0,-100.00,NW,315,8.0,9.0,99,-99.99,,,-99.99,,2013-02-14 04:32:00,
2013-02-13 22:42:00,19.0,19.0,-100.00,NW,315,8.0,9.0,99,-99.99,,,-99.99,,2013-02-14 04:42:00,
2013-02-13 22:52:00,19.0,19.0,-100.00,NW,315,8.0,9.0,99,-99.99,,,-99.99,,2013-02-14 04:52:00,
2013-02-13 23:02:00,19.0,19.0,-100.00,NW,315,8.0,9.0,99,-99.99,,,-99.99,,2013-02-14 05:02:00,
2013-02-13 23:32:00,21.0,21.0,-100.00,WSW,245,8.0,11.0,99,-99.99,,,-99.99,,2013-02-14 05:32:00,
2013-02-13 23:42:00,21.0,21.0,-100.00,WSW,245,8.0,11.0,99,-99.99,,,-99.99,,2013-02-14 05:42:00,
2013-02-13 23:52:00,21.0,21.0,-100.00,WSW,245,8.0,11.0,99,-99.99,,,-99.99,,2013-02-14 05:52:00,